Regional Weather Roundup
Issued by NWS

Home | Current Version | Previous Version | Text Only | Print | Product List | Glossary Off
Versions: 1 2 3 4 5 6 7 8 9 10 11 12 13 14 15 16 17 18 19 20 21 22 23 24 25 26 27

000
ASUS45 KCYS 160810
RWRWY

WYOMING REGIONAL WEATHER ROUNDUP
NATIONAL WEATHER SERVICE CHEYENNE WY
200 AM MDT WED AUG 16 2017

NOTE:  "FAIR" INDICATES FEW OR NO CLOUDS BELOW 12,000 FEET
WITH NO SIGNIFICANT WEATHER AND/OR OBSTRUCTIONS TO VISIBILITY.

WYZ001-160900-
YELLOWSTONE NATIONAL PARK

CITY           SKY/WX    TMP DP  RH WIND       PRES   REMARKS
LK YELLOWSTONE   N/A     36  36 100 NW3       30.22F
W YELLOWSTONE  NOT AVBL

$$
WYZ002>013-054>058-071-098>099-160900-
NORTHERN WYOMING

CITY           SKY/WX    TMP DP  RH WIND       PRES   REMARKS
JACKSON        FAIR      42  36  79 N6        30.15S
CODY           FAIR      57  44  62 CALM      30.04S
GREYBULL       FAIR      56  51  84 SE5       29.99R
WORLAND        FAIR      54  48  80 SE6       30.01R
SHERIDAN       FAIR      49  44  83 SE5       30.01R
BUFFALO        FAIR      51  40  65 W9        30.06S
GILLETTE       FAIR      47  45  93 S6        30.02S
HULETT         FAIR      52  50  93 S6        30.03S
NEWCASTLE      FAIR      55  46  71 NW6       30.02R

$$
WYZ014>020-022>026-101>103-160900-
CENTRAL WYOMING

CITY           SKY/WX    TMP DP  RH WIND       PRES   REMARKS
BIG PINEY      FAIR      45  39  79 NE8       30.18R
PINEDALE       FAIR      39  37  93 NW3       30.19S
DUBOIS         FAIR      43  37  81 W13       30.17S
LANDER           N/A    N/A N/A N/A MISG      30.09R
RIVERTON       FAIR      53  45  74 W8        30.09R
CASPER         FAIR      50  48  93 SW6       30.09R
DOUGLAS        FAIR      52  49  89 NW6       30.08R

$$
WYZ021-027>030-104>119-160900-
SOUTHERN WYOMING

CITY           SKY/WX    TMP DP  RH WIND       PRES   REMARKS
EVANSTON       FAIR      50  37  61 S5        30.18R
KEMMERER         N/A     48  41  76 SW5       30.19R
FORT BRIDGER   FAIR      49  44  82 SW6       30.20S
ROCK SPRINGS   FAIR      52  44  74 S6        30.15R
RAWLINS        CLOUDY    52  46  80 CALM      30.17R
SARATOGA       CLOUDY    50  50 100 E12       30.18R
LARAMIE        FAIR      47  44  90 SE3       30.15F
CHEYENNE       FAIR      54  45  71 NW10      30.09R
TORRINGTON     CLOUDY    60  57  89 CALM      30.01R
PINE BLUFFS    FAIR      55  48  76 N10       30.05R

$$




USA.gov is the U.S. government's official web portal to all federal, state and local government web resources and services.